Covington, KY

7:59 AM EST on November 20, 2019 (GMT -0500)
Cincinnati-Northern KY International

Weather History for KCVG - October, 2019

Change the Weather History Date:

Wednesday, October 23, 2019

  Actual Average Record
Temperature  
Mean Temperature 52 °F 54 °F  
Max Temperature 66 °F 64 °F 85 °F (1947)
Min Temperature 39 °F 43 °F 25 °F (1997)
Degree Days  
Heating Degree Days 12 12  
Month to date heating degree days 134 199  
Since 1 July heating degree days 134 257  
Cooling Degree Days 0 0  
Month to date cooling degree days 55 16  
Year to date cooling degree days 1497 1121  
Growing Degree Days 2 (Base 50)    
Moisture  
Dew Point 33 °F    
Average Humidity 50    
Maximum Humidity 76    
Minimum Humidity 26    
Precipitation  
Precipitation 0.00 in 0.10 in 2.69 in (2007)
Month to date precipitation 1.15 2.45  
Year to date precipitation 43.57 34.87  
Snow  
Snow 0.00 in 0.00 in - ()
Month to date snowfall 0.0 0.2  
Since 1 July snowfall 0.0 0.2  
Since 1 September snowfall 0.0 0.2  
Snow Depth 0.00 in    
Sea Level Pressure  
Sea Level Pressure 30.08 in    
Wind  
Wind Speed 8 mph ()    
Max Wind Speed 17 mph    
Max Gust Speed 22 mph    
Visibility 10.0 miles    
Events      
T = Trace of Precipitation, MM = Missing Value Source: Averaged Metar Reports

Daily Weather History Graph

Daily Weather History Graph

Search for Another Location

Airport or City:

Astronomy

Oct. 23, 2019 Rise Set
Actual Time 7:56 AM EDT 6:49 PM EDT
Civil Twilight 7:28 AM EDT 7:16 PM EDT
Nautical Twilight 6:57 AM EDT 7:47 PM EDT
Astronomical Twilight 6:26 AM EDT 8:18 PM EDT
Moon 2:17 AM EDT (10/23) 4:36 PM EDT (10/23)
Length of Visible Light 11h 47m
Length of Day
10h 52m
Waning Crescent, 27% of the Moon is Illuminated
Oct 23
Waning Crescent
Oct 27
New
Nov 4
First Quarter
Nov 12
Full
Nov 19
Last Quarter

Hourly Weather History & Observations

Time (EDT) Temp. Windchill Dew Point Humidity Pressure Visibility Wind Dir Wind Speed Gust Speed Precip Events Conditions
12:52 AM 48.9 °F - 37.9 °F 66% 29.95 in 10.0 mi SSW 5.8 mph - N/A   Partly Cloudy
1:52 AM 48.0 °F - 37.0 °F 66% 29.96 in 10.0 mi SW 8.1 mph - N/A   Clear
2:52 AM 46.9 °F - 36.0 °F 66% 29.98 in 10.0 mi SW 6.9 mph - N/A   Clear
3:52 AM 45.0 °F 41.2 °F 35.1 °F 68% 29.99 in 10.0 mi SW 6.9 mph - N/A   Clear
4:52 AM 43.0 °F 38.8 °F 34.0 °F 71% 30.01 in 10.0 mi SW 6.9 mph - N/A   Clear
5:52 AM 41.0 °F 35.8 °F 33.1 °F 73% 30.04 in 10.0 mi SSW 8.1 mph - N/A   Clear
6:52 AM 39.9 °F 35.1 °F 32.0 °F 73% 30.05 in 10.0 mi SW 6.9 mph - N/A   Clear
7:52 AM 41.0 °F 36.4 °F 32.0 °F 70% 30.06 in 10.0 mi SSW 6.9 mph - N/A   Clear
8:52 AM 43.0 °F 38.2 °F 34.0 °F 71% 30.09 in 10.0 mi SSW 8.1 mph - N/A   Clear
9:52 AM 48.0 °F - 34.0 °F 58% 30.12 in 10.0 mi SW 11.5 mph - N/A   Clear
10:52 AM 53.1 °F - 33.1 °F 47% 30.13 in 10.0 mi SW 10.4 mph - N/A   Clear
11:52 AM 55.9 °F - 30.9 °F 39% 30.14 in 10.0 mi SW 10.4 mph - N/A   Clear
12:52 PM 60.1 °F - 28.9 °F 31% 30.13 in 10.0 mi West 11.5 mph 19.6 mph N/A   Clear
1:52 PM 63.0 °F - 28.9 °F 28% 30.12 in 10.0 mi SW 12.7 mph 19.6 mph N/A   Partly Cloudy
2:52 PM 64.0 °F - 28.9 °F 27% 30.11 in 10.0 mi SSW 10.4 mph 18.4 mph N/A   Clear
3:52 PM 64.9 °F - 30.0 °F 27% 30.09 in 10.0 mi South 17.3 mph 20.7 mph N/A   Partly Cloudy
4:52 PM 64.0 °F - 30.0 °F 28% 30.09 in 10.0 mi South 13.8 mph - N/A   Partly Cloudy
5:52 PM 62.1 °F - 30.0 °F 30% 30.09 in 10.0 mi SSW 11.5 mph - N/A   Scattered Clouds
6:52 PM 57.0 °F - 32.0 °F 39% 30.12 in 10.0 mi South 8.1 mph - N/A   Scattered Clouds
7:52 PM 55.0 °F - 32.0 °F 42% 30.13 in 10.0 mi South 5.8 mph - N/A   Scattered Clouds
8:52 PM 53.1 °F - 33.1 °F 47% 30.14 in 10.0 mi South 8.1 mph - N/A   Clear
10:52 PM 53.1 °F - 33.1 °F 47% 30.13 in 10.0 mi South 12.7 mph - N/A   Partly Cloudy
11:52 PM 54.0 °F - 32.0 °F 43% 30.12 in 10.0 mi South 11.5 mph - N/A   Scattered Clouds